Location: Carri�res
(48.9069°N, 2.1792°E)
Time: 17:56:21
(UTC+00:00)

SeaSat 1 - Pass Details

Date: 16 May 2021
Orbit: 744 x 747 km, 108.0° (Epoch: 12 June)

Event Time Altitude Azimuth Distance (km) Brightness Sun altitude
Rises 01:05:47 0° 26° (NNE) 3,203 7.3 -19.8°
Reaches altitude 10° 01:08:05 10° 23° (NNE) 2,275 6.2 -19.7°
Maximum altitude 01:12:55 58° 305° (NW) 876 2.8 -19.4°
Enters shadow 01:15:09 31° 240° (WSW) 1,303 3.3 -19.2°
